Weather History for KAUS - July, 2013

Change the Weather History Date:

Wednesday, July 3, 2013

  Actual Average Record
Temperature  
Mean Temperature 78 °F 83 °F  
Max Temperature 95 °F 94 °F 102 °F (1980)
Min Temperature 60 °F 71 °F 60 °F (2013)
Degree Days  
Heating Degree Days 0 0  
Month to date heating degree days 0 0  
Since 1 June heating degree days 0 0  
Since 1 July heating degree days 0 0  
Cooling Degree Days 13 18  
Month to date cooling degree days 41 54  
Year to date cooling degree days 1124 1042  
Since 1 June cooling degree days 610 535  
Growing Degree Days 30 (Base 50)    
Moisture  
Dew Point 51 °F    
Average Humidity 52    
Maximum Humidity 84    
Minimum Humidity 19    
Precipitation  
Precipitation 0.00 in 0.11 in 1.31 in (2007)
Month to date precipitation 0.00 0.32  
Year to date precipitation 16.13 18.56  
Snow  
Snow 0.00 in - - ()
Month to date snowfall 0.0  
Since 1 June snowfall 0.0  
Since 1 July snowfall 0.0  
Snow Depth 0.00 in    
Sea Level Pressure  
Sea Level Pressure 29.96 in    
Wind  
Wind Speed 4 mph (NE)    
Max Wind Speed 14 mph    
Max Gust Speed 20 mph    
Visibility 10 miles    
Events      
T = Trace of Precipitation, MM = Missing Value Source: NWS Daily Summary

Daily Weather History Graph

Daily Weather History Graph

Search for Another Location

Airport or City:

Trip Planner

Search our weather history database for the weather conditions in past years. The results will help you decide how hot, cold, wet, or windy it might be!

Date:

Astronomy

Jul. 03, 2013 Rise Set
Actual Time 6:33 AM CDT 8:36 PM CDT
Civil Twilight 6:06 AM CDT 9:03 PM CDT
Nautical Twilight 5:33 AM CDT 9:36 PM CDT
Astronomical Twilight 4:57 AM CDT 10:12 PM CDT
Moon 3:04 AM CDT 4:54 PM CDT
Length of Visible Light 14h 57m
Length of Day
14h 02m
Waning Crescent, 18% of the Moon is Illuminated
Jul 3
Waning Crescent
Jul 8
New
Jul 15
First Quarter
Jul 22
Full
Jul 29
Last Quarter

Hourly Weather History & Observations

Time (CDT) Temp. Heat Index Dew Point Humidity Pressure Visibility Wind Dir Wind Speed Gust Speed Precip Events Conditions
12:53 AM 77.0 °F - 48.9 °F 37% 29.99 in 10.0 mi NNE 10.4 mph - N/A   Clear
1:53 AM 73.0 °F - 51.1 °F 46% 30.00 in 10.0 mi ENE 4.6 mph - N/A   Clear
2:53 AM 70.0 °F - 51.1 °F 51% 30.00 in 10.0 mi North 4.6 mph - N/A   Clear
3:53 AM 64.0 °F - 53.1 °F 67% 30.00 in 10.0 mi Calm Calm - N/A   Clear
4:53 AM 62.1 °F - 54.0 °F 75% 29.99 in 10.0 mi Calm Calm - N/A   Clear
5:53 AM 60.1 °F - 55.0 °F 83% 29.99 in 10.0 mi Calm Calm - N/A   Clear
6:53 AM 63.0 °F - 55.9 °F 78% 29.99 in 10.0 mi Calm Calm - N/A   Partly Cloudy
7:53 AM 70.0 °F - 59.0 °F 68% 29.99 in 10.0 mi Calm Calm - N/A   Partly Cloudy
8:53 AM 77.0 °F - 57.9 °F 52% 30.01 in 10.0 mi NE 5.8 mph - N/A   Partly Cloudy
9:53 AM 82.0 °F 82.1 °F 59.0 °F 45% 30.01 in 10.0 mi North 6.9 mph - N/A   Partly Cloudy
10:53 AM 86.0 °F 85.0 °F 57.9 °F 38% 30.01 in 10.0 mi ENE 4.6 mph - N/A   Partly Cloudy
11:53 AM 90.0 °F - 48.9 °F 24% 29.99 in 10.0 mi Calm Calm - N/A   Scattered Clouds
12:53 PM 91.9 °F - 48.0 °F 22% 29.98 in 10.0 mi East 8.1 mph - N/A   Scattered Clouds
1:53 PM 91.9 °F - 46.9 °F 21% 29.95 in 10.0 mi NNE 6.9 mph 19.6 mph N/A   Partly Cloudy
2:53 PM 93.0 °F - 46.9 °F 20% 29.94 in 10.0 mi ESE 12.7 mph 19.6 mph N/A   Partly Cloudy
3:53 PM 93.0 °F - 46.9 °F 20% 29.93 in 10.0 mi Calm Calm - N/A   Partly Cloudy
4:53 PM 93.0 °F - 46.0 °F 20% 29.91 in 10.0 mi Calm Calm - N/A   Scattered Clouds
5:53 PM 93.9 °F - 46.0 °F 19% 29.88 in 10.0 mi NNW 5.8 mph - N/A   Scattered Clouds
6:53 PM 93.0 °F - 45.0 °F 19% 29.88 in 10.0 mi Calm Calm - N/A   Scattered Clouds
7:53 PM 87.1 °F - 51.1 °F 29% 29.88 in 10.0 mi North 3.5 mph - N/A   Scattered Clouds
8:53 PM 79.0 °F - 50.0 °F 36% 29.88 in 10.0 mi NNW 5.8 mph - N/A   Scattered Clouds
9:53 PM 73.0 °F - 55.0 °F 53% 29.89 in 10.0 mi Calm Calm - N/A   Partly Cloudy
10:53 PM 75.0 °F - 57.0 °F 53% 29.92 in 10.0 mi South 3.5 mph - N/A   Partly Cloudy
11:53 PM 72.0 °F - 60.1 °F 66% 29.94 in 10.0 mi ESE 6.9 mph - N/A   Clear